Home   Weather   Seevetal   Past weeks

Flag for Germany Past Weather in Seevetal, Lower Saxony, Germany — Yesterday and Last 2 Weeks

Now
55 °F

Clear.


Feels Like: 55 °F
Forecast: 61 / 68 °F
Wind: 2 mph from East

Location: Hamburg-Fuhlsbuettel

Current Time: Aug 17, 2017 at 6:01:39 am

Latest Report: Aug 17, 2017 at 5:20 am


Visibility: 10 mi

Pressure: 30.07 "Hg

Humidity: 100%

Dew Point: 55 °F

Location of SeevetalLocation

Past Weather in Seevetal — Graph

°F

Seevetal Temperature Yesterday

Maximum temperature yesterday: 73 °F (at 3:50 pm)
Minimum temperature yesterday: 55 °F (at 11:20 pm)
Average temperature yesterday: 64 °F

High & Low Weather Summary for the Past Weeks

 TemperatureHumidityPressure
High81 °F (Aug 15, 3:20 pm)100% (Aug 2, 4:20 am)30.24 "Hg (Aug 2, 4:20 am)
Low45 °F (Aug 14, 5:50 am)41% (Aug 7, 2:20 pm)29.65 "Hg (Aug 3, 2:20 pm)
Average63 °F78%29.99 "Hg
* Reported Aug 2 4:20 am — Aug 17 4:50 am, Seevetal. Weather by CustomWeather, © 2017

Note: Actual official high and low records may vary slightly from our data, if they occured in-between our weather recording intervals... More about our weather records

Advertising

Seevetal Weather History for the Previous 24 Hours

Scroll right to see more
 ConditionsComfort  
Time TempWeatherWind HumidityBarometerVisibility
4:50 am
Thu, Aug 17
55 °FClear.5 mph94%30.07 "Hg10 mi
4:20 am55 °FClear.3 mph94%30.09 "Hg10 mi
3:50 am55 °FClear.2 mph94%30.09 "Hg10 mi
2:50 am55 °FFog.1 mph94%30.09 "HgN/A
1:50 am54 °FFog.2 mph100%30.12 "HgN/A
1:20 am54 °FClear.2 mph100%30.12 "Hg10 mi
12:50 am57 °FClear.3 mph88%30.15 "Hg10 mi
12:20 am55 °FClear.3 mph94%30.15 "Hg10 mi
11:50 pm
Wed, Aug 16
55 °FClear.1 mph94%30.15 "Hg10 mi
11:20 pm55 °FClear.1 mph100%30.15 "Hg10 mi
10:50 pm57 °FClear.2 mph88%30.15 "Hg10 mi
10:20 pm57 °FClear.2 mph94%30.15 "Hg10 mi
10:03 pm59 °FClear.2 mph88%30.15 "Hg10 mi
9:50 pm59 °FClear.2 mph88%30.15 "Hg10 mi
9:04 pm61 °FClear.2 mph83%30.15 "HgN/A
8:20 pm63 °FSunny.3 mph77%30.15 "Hg10 mi
7:50 pm64 °FSunny.3 mph78%30.15 "Hg10 mi
7:20 pm66 °FPartly sunny.6 mph64%30.15 "HgN/A
6:50 pm68 °FPartly sunny.7 mph60%30.15 "HgN/A
6:20 pm70 °FPartly sunny.7 mph53%30.15 "HgN/A
5:50 pm70 °FPartly sunny.7 mph53%30.15 "HgN/A
5:20 pm72 °FScattered clouds.8 mph53%30.15 "HgN/A
4:50 pm70 °FScattered clouds.7 mph57%30.15 "HgN/A
4:20 pm72 °FPassing clouds.6 mph50%30.15 "HgN/A
3:50 pm73 °FPassing clouds.7 mph47%30.15 "HgN/A
3:20 pm72 °FPassing clouds.7 mph53%30.15 "HgN/A
2:50 pm72 °FPassing clouds.9 mph53%30.15 "HgN/A
2:20 pm72 °FScattered clouds.10 mph61%30.15 "HgN/A
1:50 pm70 °FScattered clouds.10 mph60%30.15 "HgN/A
1:20 pm70 °FScattered clouds.12 mph60%30.15 "HgN/A
12:50 pm66 °FScattered clouds.9 mph73%30.15 "HgN/A
12:20 pm68 °FScattered clouds.8 mph69%30.15 "HgN/A
11:50 am68 °FScattered clouds.8 mph73%30.15 "HgN/A
11:20 am68 °FScattered clouds.6 mph78%30.15 "HgN/A
10:50 am64 °FScattered clouds.7 mph88%30.15 "HgN/A
10:20 am64 °FPartly sunny.9 mph88%30.12 "HgN/A
9:50 am64 °FBroken clouds.8 mph88%30.12 "HgN/A
9:20 am64 °FPartly sunny.7 mph88%30.12 "HgN/A
9:03 am64 °FBroken clouds.7 mph88%30.12 "Hg5 mi
8:50 am64 °FBroken clouds.7 mph94%30.12 "Hg4 mi
8:20 am63 °FFog.5 mph100%30.09 "Hg2 mi
7:50 am63 °FFog.2 mph100%30.09 "Hg2 mi
7:20 am63 °FFog.7 mph94%30.09 "Hg2 mi
7:03 am63 °FFog.7 mph94%30.07 "Hg1 mi
6:50 am63 °FFog.7 mph94%30.07 "Hg1 mi
6:20 am61 °FFog.6 mph100%30.07 "Hg1 mi
Weather by CustomWeather, © 2017

See weather overviewHow to use our weather pages